Location: Starhoo Observatory
(41.8578°N, 70.9669°W)
Time: 02:52:06
(UTC-05:00)

ISS - Visible Passes

Search period start: 08 December 2016 00:00
Search period end: 18 December 2016 00:00
Orbit: 401 x 410 km, 51.6° (Epoch: 08 December)

Date Brightness Start Highest point End Pass type
(mag) Time Alt. Az. Time Alt. Az. Time Alt. Az.
08 Dec -1.6 16:38:59 10° WNW 16:41:45 24° NNW 16:44:31 10° NE visible
08 Dec -0.6 18:17:06 10° NW 18:17:57 13° NNW 18:17:57 13° NNW visible
09 Dec -1.1 17:24:47 10° NW 17:26:53 16° N 17:28:03 13° NNE visible
10 Dec -0.8 18:09:54 10° NNW 18:10:50 14° NNW 18:10:50 14° NNW visible
11 Dec -1.2 17:17:48 10° NW 17:19:50 15° N 17:20:58 13° NNE visible
12 Dec -1.2 18:02:20 10° NW 18:03:49 18° NNW 18:03:49 18° NNW visible
13 Dec -1.4 17:10:25 10° NNW 17:12:43 17° N 17:14:02 14° NE visible
13 Dec -0.2 18:46:32 10° NW 18:46:43 11° NW 18:46:43 11° NW visible
14 Dec -2.1 17:54:38 10° NW 17:57:01 29° N 17:57:01 29° N visible
15 Dec -1.9 17:02:45 10° NW 17:05:29 23° NNE 17:07:27 14° ENE visible
15 Dec -0.8 18:38:57 10° WNW 18:40:09 20° WNW 18:40:09 20° WNW visible
16 Dec -3.4 17:46:55 10° NW 17:50:12 64° NNE 17:50:46 52° E visible
17 Dec -2.7 16:54:58 10° NW 16:58:05 38° NNE 17:01:12 10° E visible
17 Dec -1.4 18:31:37 10° WNW 18:34:20 28° SW 18:34:20 28° SW visible
